Regional Weather Roundup
Issued by NWS Charleston, SC

Current Version | Previous Version | Graphics & Text | Print | Product List | Glossary On
Versions: 1 2 3 4 5 6 7 8 9 10 11 12 13 14 15 16 17 18 19 20 21 22 23 24 25 26 27 28 29 30 31 32 33 34 35 36 37 38 39 40 41 42 43 44 45 46 47 48 49 50
000
ASUS42 KCHS 160310
RWRCHS
REGIONAL WEATHER ROUNDUP
NATIONAL WEATHER SERVICE CHARLESTON SC
1100 PM EDT TUE APR 15 2014

NOTE: "FAIR" INDICATES FEW OR NO CLOUDS BELOW 12,000 FEET WITH NO
SIGNIFICANT WEATHER AND/OR OBSTRUCTIONS TO VISIBILITY.

NOT ALL STATIONS ARE QUALITY CONTROLLED BY THE NATIONAL
WEATHER SERVICE. USE DATA WITH CAUTION...ESPECIALLY
DEWPOINT OBSERVATIONS.

SCZ027-030-031-034>040-042>050-160400-
...SOUTH CAROLINA...

CITY           SKY/WX    TMP DP  RH WIND       PRES   REMARKS
N CHARLESTON   MOCLDY    59  51  75 N15G26    29.90R
WATERFRONT PRK   N/A     61 N/A N/A N17         N/A
FORT JOHNSON   NOT AVBL
MOUNT PLEASANT MOCLDY   N/A N/A N/A N10G28    29.89R
JOHNS ISLAND   CLOUDY    61  55  82 N15G21    29.89R
PINOPOLIS        N/A     57  50  77 N21G30    29.83R
MONCKS CORNER  MOCLDY    57  52  82 N14       29.91R
SUMMERVILLE    CLOUDY    57  50  77 N12       29.91R
BEAUFORT MCAS  CLEAR     56  43  61 N15G25    29.93R
BEAUFORT ARPT  FAIR      55  46  71 NW15G30   29.92R
HILTON HEAD IS NOT AVBL
GEORGETOWN     NOT AVBL
WALTERBORO     MOCLDY    55  48  76 W8        29.92R
ORANGEBURG     CLOUDY    57  44  62 N9        29.93R
BARNWELL       MOCLDY    52  41  66 NW5       29.96R
AIKEN          FAIR      48  36  61 N14G22    30.02R
MANNING        CLOUDY    54  46  76 N15G21    29.94R
KINGSTREE      NOT AVBL
COLUMBIA       PTCLDY    51  35  54 N16G26    29.97R
SUMTER         CLOUDY    51  43  73 N18       29.94R
FLORENCE       CLOUDY    49  39  68 N15G25    29.96R
MYRTLE BEACH   CLOUDY    52  48  87 N28       29.88R
N MYRTLE BEACH CLOUDY    50  46  86 N18G36    29.87R

$$

GAZ063-065-086>088-099>101-113>116-118-119-134-136>141-150-160400-
...GEORGIA...

CITY           SKY/WX    TMP DP  RH WIND       PRES   REMARKS
SAVANNAH ARPT  PTCLDY    53  40  61 NW16      29.97R
HUNTER AAF     CLEAR     52  44  76 W12       29.94R
FORT STEWART   CLEAR     50  44  80 NW8       29.97R
STATESBORO     NOT AVBL
SYLVANIA       CLEAR     52  40  63 NW10      29.97R
CLAXTON        FAIR      50  43  76 W8        30.00R
THOMSON        CLEAR     42  36  78 NW6       30.06R
AUGUSTA-BUSH   CLEAR     49  34  56 NW12      29.99R
AUGUSTA-DANIEL CLEAR     49  35  58 NW9G21    29.98R
SWAINSBORO     FAIR      45  36  70 NW13      30.02R
VIDALIA        PTCLDY    46  36  66 NW10      30.02R
ALMA           PTCLDY    48  38  68 NW10      30.02R
WAYCROSS       NOT AVBL
JESUP          FAIR      46  43  87 NW9G16    30.01R
BRUNSWICK      CLEAR     50  45  81 W9        29.99R
SAINT SIMONS   CLEAR     52  44  74 NW10G20   29.99R

$$

SCZ027-028-034-036>038-045-046-048>050-GAZ119-141-160400-
...LAKE AND SUPPLEMENTAL COASTAL OBSERVATIONS...

STATION/POSITION TIME  TEMP    WIND        PRES    WAVE   SWELL
                       AIR SEA DIR/SP/G            HT/PER HT/PER/DIR
                 (UTC) (F)     (DEG/KT/KT) (MB)    (FT/S) (FT/S/D)
UPR LAKE MARION  NOT AVBL
WINYAH BAY       0200   58     330/ 16     1009.0R
LAKE MURRAY      0200   48     340/  4/ 12 1013.9R
ACE BASIN NERRS  0200   59     290/  5     1011.0R
FORT PULASKI     0300   56 62  290/ 20/ 25 1013.9R
SAPELO ISLAND    0200   55     300/ 15     1014.0R

$$

ANZ086-088-AMZ330-350-352-354-374-454-470-160400-
...C-MAN AND BUOY OBSERVATIONS...

STATION/POSITION TIME  TEMP    WIND        PRES    WAVE   SWELL
                       AIR SEA DIR/SP/G            HT/PER HT/PER/DIR
                 (UTC) (F)     (DEG/KT/KT) (MB)    (FT/S) (FT/S/D)
FOLLY BEACH CMAN 0200   61     290/ 12/ 16 1010.5R
BUOY 41004       NOT AVBL
BUOY 41008       0300   56 66  310/ 21/ 27 1013.5R   5/ 5   2/110/ 8
5E ST. MARYS GA  0300      65                N/A     4/ 4
FRYING PAN BUOY  0300   60 67  330/ 29/ 35 1007.4R   6/ 7   5/160/ 7
BUOY 41025       NOT AVBL
CAPE LOOKOUT NC  0200   67     170/ 18/ 19 1005.4F
BUOY 41002       NOT AVBL
BUOY 41010       0300   75 76  180/ 14/ 16 1012.5R   5/ 8   3/100/ 8
BUOY 41012       NOT AVBL
ST AUGUSTINE FL  0300   57     320/ 10/ 12 1015.4R


$$



USA.gov is the U.S. government's official web portal to all federal, state and local government web resources and services.